Weather History for Duncan, OK

Change the Weather History Date:

Tuesday, February 5, 2013

  Actual Average (KLAW) Record (KLAW)
Temperature  
Mean Temperature 51 °F -  
Max Temperature 60 °F 51 °F 76 °F (1963)
Min Temperature 42 °F 27 °F 5 °F (1989)
Degree Days  
Heating Degree Days 14    
Growing Degree Days 1 (Base 50)    
Moisture  
Dew Point 46 °F    
Average Humidity 86    
Maximum Humidity 100    
Minimum Humidity 50    
Precipitation  
Precipitation 0.00 in - - ()
Sea Level Pressure  
Sea Level Pressure 29.98 in    
Wind  
Wind Speed 4 mph (East)    
Max Wind Speed 10 mph    
Max Gust Speed -    
Visibility 9 miles    
Events      
Averages and records for this station are not official NWS values.
T = Trace of Precipitation, MM = Missing Value Source: NWS Daily Summary

Daily Weather History Graph

Daily Weather History Graph

Search for Another Location

Airport:

Trip Planner

Search our weather history database for the weather conditions in past years. The results will help you decide how hot, cold, wet, or windy it might be!

Date:

Astronomy

Feb. 05, 2013 Rise Set
Actual Time 7:26 AM CST 6:05 PM CST
Civil Twilight 7:00 AM CST 6:32 PM CST
Nautical Twilight 6:30 AM CST 7:01 PM CST
Astronomical Twilight 6:00 AM CST 7:31 PM CST
Moon 3:05 AM CST (2/5) 1:29 PM CST (2/5)
Length of Visible Light 11h 31m
Length of Day
10h 39m
Waning Crescent, 26% of the Moon is Illuminated
Feb 5
Waning Crescent
Feb 10
New
Feb 17
First Quarter
Feb 25
Full
Mar 4
Last Quarter

Hourly Weather History & Observations

Time (CST) Temp. Windchill Dew Point Humidity Pressure Visibility Wind Dir Wind Speed Gust Speed Precip Events Conditions
12:15 AM 48.2 °F - 32.0 °F 54% 29.93 in 10.0 mi NE 5.8 mph - N/A   Clear
12:35 AM 48.2 °F - 32.0 °F 54% 29.93 in 10.0 mi NE 4.6 mph - N/A   Clear
12:55 AM 50.0 °F - 32.0 °F 50% 29.92 in 10.0 mi NE 5.8 mph - N/A   Clear
1:15 AM 48.2 °F - 32.0 °F 54% 29.92 in 10.0 mi ENE 6.9 mph - N/A   Clear
1:35 AM 48.2 °F - 32.0 °F 54% 29.92 in 10.0 mi ENE 6.9 mph - N/A   Clear
1:55 AM 46.4 °F 43.5 °F 32.0 °F 57% 29.92 in 10.0 mi NE 5.8 mph - N/A   Clear
2:15 AM 46.4 °F 43.5 °F 32.0 °F 57% 29.92 in 10.0 mi ENE 5.8 mph - N/A   Clear
2:35 AM 46.4 °F 43.5 °F 32.0 °F 57% 29.91 in 10.0 mi ENE 5.8 mph - N/A   Clear
2:55 AM 46.4 °F 42.9 °F 32.0 °F 57% 29.91 in 10.0 mi ENE 6.9 mph - N/A   Clear
3:15 AM 46.4 °F 43.5 °F 32.0 °F 57% 29.90 in 10.0 mi ENE 5.8 mph - N/A   Clear
3:35 AM 44.6 °F 43.1 °F 32.0 °F 61% 29.91 in 10.0 mi ENE 3.5 mph - N/A   Clear
3:55 AM 44.6 °F 42.2 °F 32.0 °F 61% 29.91 in 10.0 mi ENE 4.6 mph - N/A   Clear
4:15 AM 42.8 °F - 32.0 °F 66% 29.91 in 10.0 mi Calm Calm - N/A   Clear
4:35 AM 42.8 °F - 32.0 °F 66% 29.92 in 10.0 mi Calm Calm - N/A   Clear
4:55 AM 42.8 °F 39.3 °F 32.0 °F 66% 29.92 in 10.0 mi NE 5.8 mph - N/A   Clear
5:15 AM 42.8 °F 40.1 °F 32.0 °F 66% 29.93 in 10.0 mi NE 4.6 mph - N/A   Clear
5:35 AM 42.8 °F 40.1 °F 33.8 °F 70% 29.93 in 10.0 mi NE 4.6 mph - N/A   Clear
5:55 AM 42.8 °F 39.3 °F 33.8 °F 70% 29.94 in 10.0 mi ENE 5.8 mph - N/A   Mostly Cloudy
6:15 AM 42.8 °F 41.1 °F 33.8 °F 70% 29.96 in 10.0 mi NE 3.5 mph - N/A   Overcast
6:35 AM 44.6 °F 43.1 °F 35.6 °F 71% 29.96 in 10.0 mi ENE 3.5 mph - N/A   Overcast
6:55 AM 44.6 °F 43.1 °F 35.6 °F 71% 29.96 in 10.0 mi East 3.5 mph - N/A   Overcast
7:15 AM 44.6 °F 42.2 °F 41.0 °F 87% 29.96 in 10.0 mi East 4.6 mph - N/A   Overcast
7:35 AM 44.6 °F 43.1 °F 41.0 °F 87% 29.96 in 10.0 mi East 3.5 mph - N/A   Overcast
7:55 AM 44.6 °F 42.2 °F 42.8 °F 93% 29.97 in 10.0 mi East 4.6 mph - N/A   Overcast
8:15 AM 44.6 °F 42.2 °F 44.6 °F 100% 29.99 in 3.0 mi East 4.6 mph - N/A   Overcast
8:55 AM 44.6 °F - 44.6 °F 100% 30.01 in 1.5 mi Calm Calm - N/A   Overcast
9:15 AM 46.4 °F - 46.4 °F 100% 30.01 in 1.5 mi Calm Calm - N/A   Overcast
9:35 AM 46.4 °F - 46.4 °F 100% 30.01 in 1.8 mi Calm Calm - N/A   Overcast
10:15 AM 50.0 °F - 50.0 °F 100% 30.02 in 2.0 mi East 3.5 mph - N/A   Overcast
10:35 AM 51.8 °F - 51.8 °F 100% 30.02 in 3.0 mi ESE 4.6 mph - N/A   Overcast
10:55 AM 51.8 °F - 51.8 °F 100% 30.03 in 5.0 mi ESE 3.5 mph - N/A   Overcast
11:15 AM 53.6 °F - 53.6 °F 100% 30.03 in 7.0 mi Calm Calm - N/A   Overcast
11:35 AM 53.6 °F - 53.6 °F 100% 30.04 in 7.0 mi Calm Calm - N/A   Overcast
11:55 AM 53.6 °F - 53.6 °F 100% 30.03 in 10.0 mi Calm Calm - N/A   Overcast
12:15 PM 55.4 °F - 53.6 °F 94% 30.02 in 10.0 mi Calm Calm - N/A   Overcast
12:35 PM 55.4 °F - 55.4 °F 100% 30.02 in 10.0 mi Calm Calm - N/A   Overcast
12:55 PM 55.4 °F - 55.4 °F 100% 30.01 in 10.0 mi Calm Calm - N/A   Overcast
1:15 PM 55.4 °F - 55.4 °F 100% 30.01 in 10.0 mi Calm Calm - N/A   Overcast
1:35 PM 55.4 °F - 55.4 °F 100% 30.01 in 10.0 mi Calm Calm - N/A   Overcast
1:55 PM 55.4 °F - 55.4 °F 100% 30.01 in 10.0 mi Calm Calm - N/A   Overcast
2:15 PM 55.4 °F - 55.4 °F 100% 30.00 in 10.0 mi Calm Calm - N/A   Overcast
2:35 PM 57.2 °F - 55.4 °F 94% 30.00 in 10.0 mi Calm Calm - N/A   Overcast
2:55 PM 59.0 °F - 55.4 °F 88% 29.99 in 10.0 mi East 3.5 mph - N/A   Overcast
3:15 PM 59.0 °F - 55.4 °F 88% 29.99 in 10.0 mi East 4.6 mph - N/A   Overcast
3:35 PM 59.0 °F - 55.4 °F 88% 29.99 in 10.0 mi ESE 6.9 mph - N/A   Overcast
3:55 PM 59.0 °F - 55.4 °F 88% 29.99 in 10.0 mi East 8.1 mph - N/A   Mostly Cloudy
4:15 PM 60.8 °F - 55.4 °F 82% 29.99 in 10.0 mi ENE 6.9 mph - N/A   Mostly Cloudy
4:35 PM 59.0 °F - 55.4 °F 88% 29.99 in 10.0 mi ENE 9.2 mph - N/A   Mostly Cloudy
4:55 PM 59.0 °F - 55.4 °F 88% 29.99 in 10.0 mi East 6.9 mph - N/A   Overcast
5:15 PM 59.0 °F - 55.4 °F 88% 29.98 in 10.0 mi ESE 8.1 mph - N/A   Mostly Cloudy
5:35 PM 59.0 °F - 55.4 °F 88% 29.99 in 10.0 mi East 9.2 mph - N/A   Mostly Cloudy
5:55 PM 59.0 °F - 55.4 °F 88% 29.99 in 10.0 mi East 10.4 mph - N/A   Overcast
6:15 PM 57.2 °F - 55.4 °F 94% 29.99 in 10.0 mi ESE 9.2 mph - N/A   Overcast
6:35 PM 57.2 °F - 55.4 °F 94% 29.99 in 10.0 mi ESE 5.8 mph - N/A   Overcast
6:55 PM 55.4 °F - 55.4 °F 100% 30.00 in 10.0 mi ESE 6.9 mph - N/A   Overcast
7:15 PM 55.4 °F - 53.6 °F 94% 30.01 in 10.0 mi ESE 4.6 mph - N/A   Mostly Cloudy
7:35 PM 53.6 °F - 53.6 °F 100% 30.01 in 10.0 mi SE 4.6 mph - N/A   Scattered Clouds
7:55 PM 53.6 °F - 53.6 °F 100% 30.02 in 10.0 mi ESE 4.6 mph - N/A   Mostly Cloudy
8:15 PM 53.6 °F - 53.6 °F 100% 30.02 in 10.0 mi ESE 3.5 mph - N/A   Overcast
8:35 PM 53.6 °F - 53.6 °F 100% 30.02 in 10.0 mi Calm Calm - N/A   Overcast
8:55 PM 53.6 °F - 53.6 °F 100% 30.02 in 10.0 mi Calm Calm - N/A   Mostly Cloudy
9:15 PM 53.6 °F - 53.6 °F 100% 30.02 in 10.0 mi ENE 4.6 mph - N/A   Scattered Clouds
9:35 PM 51.8 °F - 51.8 °F 100% 30.02 in 10.0 mi East 3.5 mph - N/A   Clear
9:55 PM 51.8 °F - 51.8 °F 100% 30.02 in 4.0 mi Calm Calm - N/A   Clear
10:15 PM 50.0 °F - 50.0 °F 100% 30.02 in 1.5 mi ENE 3.5 mph - N/A   Mist
10:35 PM 46.4 °F - 46.4 °F 100% 30.03 in 1.0 mi Calm Calm - N/A   Mist
10:55 PM 48.2 °F - 48.2 °F 100% 30.03 in 5.0 mi East 4.6 mph - N/A   Mostly Cloudy
11:15 PM 50.0 °F - 50.0 °F 100% 30.03 in 7.0 mi ESE 3.5 mph - N/A   Overcast
11:35 PM 51.8 °F - 51.8 °F 100% 30.03 in 10.0 mi SE 4.6 mph - N/A   Overcast
11:55 PM 51.8 °F - 51.8 °F 100% 30.04 in 10.0 mi SSE 4.6 mph - N/A   Overcast